[[{"header":{"parameterUnit":"m.s-1","parameterCategory":1,"la1":30.2991,"la2":30.254,"lo1":-89.0895,"lo2":-89.0444,"dy":0.0017,"dx":0.0017,"nx":28,"ny":28,"refTime":"2023-10-07T03:00:00:Z","depth":0,"parameterNumber":2,"parameterNumberName":"U-component_of_WINDS"},"data":[0,0,0,0,0,0,0,0,0,0,0,0,0,0,0,0,0,0,0,0,0,0,0,0,0,0,0,0,0,0,0,0,0,0,0,0,0,0,0,0,0,0,0,0,0,0,0,0,0,0,0,0,0,0,0,0,0,0,1.5283,1.5283,0,1.5295,1.5295,1.5296,1.5301,1.5301,1.5301,1.5301,1.5314,1.5315,1.5315,0,0,0,0,0,0,0,0,0,0,0,0,0,1.5265,1.5265,1.5283,1.5283,1.5283,1.5295,1.5295,1.5296,1.5301,1.5301,1.5301,1.5301,1.5314,1.5315,1.5315,0,0,0,0,0,0,0,0,0,0,0,0,0,1.5275,1.5265,1.5283,1.5288,1.5288,1.5295,1.5295,1.5296,1.5301,1.5301,1.5301,1.5301,1.5314,1.5315,1.5315,1.5318,0,0,1.5317,1.5317,0,0,0,0,0,0,0,0,1.5274,1.5275,1.5287,1.5287,1.5288,1.5297,1.5294,1.5303,1.5301,1.5296,1.5301,1.5301,1.5308,1.5309,1.5312,1.5319,1.532,1.5317,1.5317,1.5317,1.5317,0,0,0,0,0,0,0,1.5273,1.5275,1.5288,1.5287,1.5288,1.5289,1.5291,1.5296,1.5302,1.5297,1.5297,1.5299,1.5309,1.5311,1.5312,1.532,1.5317,1.5317,1.5317,1.5318,1.5332,1.5332,0,0,0,0,0,0,1.5272,1.5274,1.5287,1.5288,1.5281,1.529,1.5291,1.5294,1.5302,1.5304,1.5299,1.5299,1.531,1.5312,1.5313,1.5318,1.5317,1.5318,1.5318,1.5332,1.5332,1.5332,0,0,0,0,0,0,1.5272,1.5273,1.5287,1.5281,1.5283,1.529,1.5293,1.5294,1.5297,1.5304,1.5305,1.53,1.531,1.5312,1.5317,1.5318,1.5318,1.5318,1.5331,1.5332,1.5332,1.5327,0,0,0,0,0,0,1.5271,1.5273,1.5274,1.5281,1.5284,1.5291,1.5293,1.5294,1.5298,1.5298,1.5305,1.5306,1.5311,1.5316,1.5318,1.5319,1.5319,1.5331,1.5332,1.5332,1.5327,1.5327,1.5327,0,0,0,0,0,1.527,1.5272,1.5274,1.5275,1.5285,1.5291,1.5292,1.5297,1.5298,1.5299,1.5304,1.5306,1.5318,1.5317,1.5318,1.532,1.5331,1.5332,1.5332,1.5327,1.5327,1.5327,0,0,0,0,0,0,1.5264,1.5273,1.5275,1.5279,1.5284,1.5292,1.5294,1.5296,1.5301,1.5301,1.5307,1.5309,1.5314,1.5317,1.5316,1.5324,1.5325,1.5325,1.5321,1.5321,1.5321,1.532,1.5319,0,0,0,0,0,1.5264,1.5267,1.5275,1.5278,1.528,1.5287,1.5289,1.5293,1.5298,1.53,1.5305,1.5311,1.5316,1.5319,1.5324,1.5328,1.533,1.533,1.533,1.533,1.533,1.5333,1.5333,1.5332,1.5332,1.5332,0,0,1.5262,1.5267,1.5269,1.5277,1.5281,1.5285,1.5288,1.5292,1.5296,1.5301,1.5306,1.531,1.5317,1.5322,1.5324,1.5325,1.5331,1.533,1.533,1.533,1.5333,1.5334,1.5334,1.5332,1.5332,1.5332,0,0,1.5261,1.5265,1.5268,1.5273,1.5279,1.5284,1.5284,1.5292,1.5295,1.53,1.5304,1.5309,1.5317,1.5322,1.5325,1.5327,1.533,1.5329,1.5328,1.5331,1.5331,1.5331,1.5332,1.5332,1.5329,1.5329,1.5329,0,1.5258,1.5264,1.5269,1.5274,1.5277,1.5283,1.5286,1.529,1.5298,1.53,1.5301,1.5312,1.5317,1.5324,1.5324,1.5327,1.5328,1.5328,1.5331,1.5331,1.5331,1.5332,1.5332,1.5329,1.5329,1.5329,1.5329,0,1.526,1.5264,1.5266,1.5274,1.5278,1.5282,1.5288,1.5292,1.5295,1.5299,1.5305,1.5312,1.5318,1.532,1.5323,1.5327,1.5328,1.5329,1.533,1.5331,1.5332,1.5332,1.5329,1.5329,1.5329,1.5329,0,0,1.5254,1.5266,1.5266,1.527,1.5279,1.5282,1.5287,1.5293,1.5296,1.5302,1.5306,1.5314,1.5316,1.532,1.5324,1.5327,1.5328,1.5328,1.5329,1.5328,1.5334,1.5332,1.5332,1.5331,1.5331,1.5331,1.5333,0,1.5254,1.5262,1.5268,1.5274,1.5278,1.5284,1.5288,1.5294,1.5299,1.5303,1.5309,1.5314,1.5316,1.5319,1.5322,1.5327,1.533,1.5327,1.5335,1.5335,1.5332,1.5333,1.5331,1.5333,1.5334,1.5334,1.5334,0,1.5255,1.5261,1.5267,1.5276,1.5278,1.5281,1.5288,1.5293,1.53,1.5303,1.5308,1.5312,1.5318,1.5319,1.5327,1.5326,1.5329,1.5332,1.5333,1.5333,1.5334,1.5333,1.5334,1.5334,1.5335,1.5334,1.5334,0,1.525,1.5259,1.5265,1.5268,1.5278,1.528,1.5285,1.5292,1.5296,1.5302,1.5305,1.5312,1.5316,1.5321,1.5327,1.5328,1.5335,1.5337,1.5338,1.5338,1.5339,1.5338,1.5339,1.5342,1.5342,1.5342,1.5342,0,1.5249,1.5253,1.5263,1.5266,1.527,1.5277,1.5282,1.5287,1.5293,1.5298,1.5304,1.5308,1.5316,1.5322,1.5327,1.5333,1.5335,1.5338,1.5339,1.5337,1.5336,1.5339,1.5339,1.5342,1.5342,1.5342,1.5342,0,1.5244,1.5251,1.5257,1.5266,1.5269,1.5272,1.528,1.5284,1.5289,1.5295,1.5297,1.5305,1.5312,1.5319,1.5329,1.5332,1.5338,1.534,1.5336,1.5336,1.5337,1.5337,1.5339,1.534,1.5342,1.5342,1.5342,0,1.5242,1.5245,1.5256,1.5259,1.5263,1.5269,1.5273,1.5281,1.5285,1.5294,1.5297,1.5304,1.531,1.5321,1.5328,1.5336,1.5338,1.5338,1.5339,1.5337,1.5337,1.5337,1.5338,1.5337,1.5337,1.5337,1.5337,0,1.5239,1.5243,1.5248,1.5256,1.5261,1.5267,1.5273,1.5276,1.5285,1.5289,1.5296,1.5301,1.5311,1.5319,1.5327,1.5332,1.5336,1.5337,1.5338,1.5336,1.5333,1.5334,1.5335,1.5337,1.5337,1.5337,1.5337,1.5337,1.5236,1.5239,1.5247,1.5253,1.5259,1.5265,1.5269,1.5276,1.5282,1.529,1.5294,1.5302,1.531,1.5322,1.5327,1.5333,1.5334,1.5335,1.5335,1.5335,1.5335,1.5332,1.5335,1.5335,1.5335,1.5335,1.5335,0,1.5233,1.5238,1.5244,1.5253,1.5259,1.5263,1.527,1.5274,1.5281,1.5288,1.5294,1.5303,1.5311,1.5319,1.5327,1.533,1.5333,1.5332,1.5332,1.5333,1.5333,1.5332,1.533,1.533,1.533,1.533,1.533,1.533,1.5232,1.5238,1.5242,1.5251,1.5257,1.5264,1.5268,1.5274,1.528,1.5289,1.5296,1.5301,1.5309,1.5318,1.5326,1.5328,1.5331,1.533,1.5333,1.5333,1.5333,1.5333,1.5332,1.533,1.533,1.5332,1.5332,1.5332]},{"header":{"parameterUnit":"m.s-1","parameterCategory":1,"la1":30.2991,"la2":30.254,"lo1":-89.0895,"lo2":-89.0444,"dy":0.0017,"dx":0.0017,"nx":28,"ny":28,"refTime":"2023-10-07T03:00:00:Z","depth":0,"parameterNumber":3,"parameterNumberName":"V-component_of_WINDS"},"data":[0,0,0,0,0,0,0,0,0,0,0,0,0,0,0,0,0,0,0,0,0,0,0,0,0,0,0,0,0,0,0,0,0,0,0,0,0,0,0,0,0,0,0,0,0,0,0,0,0,0,0,0,0,0,0,0,0,0,-0.8344,-0.8345,0,-0.8406,-0.8406,-0.8407,-0.8459,-0.846,-0.8461,-0.8461,-0.8523,-0.8524,-0.8526,0,0,0,0,0,0,0,0,0,0,0,0,0,-0.8273,-0.8274,-0.8344,-0.8345,-0.8345,-0.8405,-0.8406,-0.8407,-0.8459,-0.846,-0.8461,-0.8461,-0.8523,-0.8524,-0.8526,0,0,0,0,0,0,0,0,0,0,0,0,0,-0.8316,-0.8274,-0.8344,-0.8379,-0.8382,-0.8405,-0.8406,-0.8407,-0.8459,-0.846,-0.8461,-0.8462,-0.8523,-0.8524,-0.8526,-0.8519,0,0,-0.8531,-0.8532,0,0,0,0,0,0,0,0,-0.8313,-0.8319,-0.8373,-0.8376,-0.8381,-0.8426,-0.8404,-0.8445,-0.8459,-0.843,-0.8461,-0.8462,-0.849,-0.8495,-0.8504,-0.8522,-0.8524,-0.8531,-0.8532,-0.8533,-0.8533,0,0,0,0,0,0,0,-0.831,-0.8316,-0.8368,-0.8374,-0.8378,-0.8392,-0.8399,-0.8412,-0.8454,-0.8433,-0.8437,-0.8443,-0.8492,-0.8502,-0.8506,-0.8525,-0.8531,-0.8533,-0.8534,-0.8534,-0.8544,-0.8543,0,0,0,0,0,0,-0.8302,-0.8313,-0.8366,-0.837,-0.8349,-0.8392,-0.84,-0.841,-0.8454,-0.8462,-0.8442,-0.8445,-0.8499,-0.8504,-0.8508,-0.8506,-0.8533,-0.8534,-0.8535,-0.8545,-0.8544,-0.8543,0,0,0,0,0,0,-0.83,-0.8306,-0.8364,-0.8343,-0.8351,-0.8393,-0.8404,-0.8411,-0.8421,-0.8462,-0.847,-0.8445,-0.85,-0.8506,-0.8517,-0.8508,-0.8535,-0.8537,-0.8546,-0.8545,-0.8543,-0.8498,0,0,0,0,0,0,-0.8298,-0.8305,-0.8302,-0.8342,-0.8352,-0.837,-0.8403,-0.8412,-0.8424,-0.8429,-0.8466,-0.8473,-0.8501,-0.8514,-0.8518,-0.8511,-0.8538,-0.8547,-0.8545,-0.8544,-0.8501,-0.8496,-0.8491,0,0,0,0,0,-0.8295,-0.8286,-0.8302,-0.8308,-0.8349,-0.837,-0.8375,-0.8408,-0.8423,-0.8421,-0.8448,-0.8472,-0.8508,-0.8515,-0.852,-0.8513,-0.8547,-0.8546,-0.8544,-0.8503,-0.8497,-0.8492,0,0,0,0,0,0,-0.8243,-0.8292,-0.831,-0.8314,-0.8337,-0.8379,-0.8377,-0.84,-0.842,-0.8423,-0.8463,-0.8471,-0.8478,-0.8496,-0.8502,-0.8511,-0.8531,-0.8531,-0.8498,-0.8493,-0.8488,-0.8484,-0.8539,0,0,0,0,0,-0.8232,-0.8244,-0.8286,-0.8286,-0.8297,-0.8335,-0.8345,-0.8368,-0.8394,-0.8404,-0.8432,-0.8456,-0.8474,-0.8484,-0.8502,-0.8504,-0.8514,-0.8502,-0.8497,-0.8493,-0.8493,-0.8498,-0.8494,-0.8538,-0.8538,-0.8538,0,0,-0.8209,-0.8238,-0.8243,-0.8276,-0.8297,-0.831,-0.8343,-0.8354,-0.8365,-0.8406,-0.8419,-0.844,-0.847,-0.8477,-0.8481,-0.8493,-0.8483,-0.8491,-0.8488,-0.8489,-0.8496,-0.8492,-0.8488,-0.8536,-0.8537,-0.8537,0,0,-0.8175,-0.8197,-0.82,-0.8221,-0.8253,-0.8279,-0.828,-0.8318,-0.8334,-0.8348,-0.838,-0.8393,-0.8421,-0.8442,-0.8457,-0.8434,-0.8458,-0.8438,-0.8414,-0.8419,-0.8416,-0.8413,-0.8407,-0.8404,-0.8437,-0.8437,-0.8437,0,-0.8143,-0.8163,-0.8198,-0.8209,-0.8224,-0.8263,-0.8268,-0.8286,-0.8322,-0.8332,-0.8344,-0.8383,-0.8406,-0.842,-0.8415,-0.8424,-0.8428,-0.8434,-0.8414,-0.8411,-0.8409,-0.8404,-0.8401,-0.8435,-0.8435,-0.8435,-0.8435,0,-0.8123,-0.8137,-0.8136,-0.8171,-0.8185,-0.8192,-0.823,-0.8241,-0.8264,-0.8288,-0.8303,-0.8332,-0.8358,-0.8363,-0.8384,-0.8381,-0.8388,-0.8406,-0.8428,-0.8402,-0.8398,-0.8396,-0.8431,-0.8432,-0.8433,-0.8433,0,0,-0.8056,-0.8113,-0.8112,-0.813,-0.817,-0.8182,-0.8191,-0.8218,-0.8227,-0.8251,-0.8262,-0.8287,-0.8305,-0.8321,-0.8346,-0.835,-0.8333,-0.8369,-0.837,-0.8363,-0.8334,-0.8321,-0.8318,-0.8349,-0.8349,-0.8349,-0.8333,0,-0.803,-0.805,-0.8084,-0.8094,-0.8109,-0.8147,-0.8157,-0.8182,-0.8206,-0.8223,-0.825,-0.8267,-0.8289,-0.83,-0.8305,-0.8334,-0.8328,-0.8335,-0.8361,-0.8361,-0.8353,-0.8316,-0.8301,-0.8284,-0.8331,-0.8331,-0.833,0,-0.8001,-0.8025,-0.8037,-0.8078,-0.8085,-0.8093,-0.8121,-0.8136,-0.8167,-0.8185,-0.8204,-0.8232,-0.8246,-0.8265,-0.8287,-0.8291,-0.8304,-0.8319,-0.832,-0.8324,-0.8345,-0.8321,-0.828,-0.8278,-0.8328,-0.8328,-0.8328,0,-0.7955,-0.7989,-0.8001,-0.8015,-0.8063,-0.8068,-0.8088,-0.812,-0.8135,-0.8159,-0.817,-0.8196,-0.821,-0.823,-0.8265,-0.8275,-0.8283,-0.8305,-0.8299,-0.8299,-0.83,-0.83,-0.8262,-0.8305,-0.8305,-0.8305,-0.8305,0,-0.7923,-0.7929,-0.7982,-0.7989,-0.7998,-0.8037,-0.8045,-0.8069,-0.8097,-0.8111,-0.8146,-0.8158,-0.8202,-0.822,-0.8247,-0.8263,-0.8268,-0.8284,-0.8291,-0.8282,-0.828,-0.8291,-0.8294,-0.8305,-0.8305,-0.8305,-0.8305,0,-0.7872,-0.7907,-0.7924,-0.7968,-0.798,-0.7985,-0.8023,-0.8033,-0.806,-0.8077,-0.8084,-0.8126,-0.8149,-0.8186,-0.8219,-0.8238,-0.8249,-0.826,-0.8238,-0.8243,-0.8237,-0.8238,-0.8206,-0.8205,-0.8247,-0.8247,-0.8246,0,-0.785,-0.7856,-0.7902,-0.7914,-0.7933,-0.7952,-0.7968,-0.8007,-0.8022,-0.8059,-0.8065,-0.8091,-0.8115,-0.815,-0.8184,-0.8211,-0.8224,-0.8212,-0.8228,-0.822,-0.8227,-0.8227,-0.8229,-0.8208,-0.8207,-0.8206,-0.8206,0,-0.7808,-0.7826,-0.7847,-0.7875,-0.7893,-0.7917,-0.7943,-0.7951,-0.7996,-0.8011,-0.8036,-0.8054,-0.809,-0.8116,-0.8148,-0.817,-0.8196,-0.8201,-0.8201,-0.8192,-0.818,-0.8189,-0.8229,-0.8201,-0.8202,-0.8202,-0.8202,-0.8202,-0.7772,-0.778,-0.7815,-0.7838,-0.7862,-0.7886,-0.7898,-0.7927,-0.7948,-0.7981,-0.8003,-0.8027,-0.8061,-0.8107,-0.8127,-0.8148,-0.8159,-0.8159,-0.8159,-0.8159,-0.8157,-0.8176,-0.8153,-0.8154,-0.8154,-0.8154,-0.8154,0,-0.7734,-0.7758,-0.7779,-0.7815,-0.7834,-0.7857,-0.7887,-0.7902,-0.7923,-0.7952,-0.7975,-0.8005,-0.8031,-0.8068,-0.8098,-0.8107,-0.812,-0.8114,-0.8114,-0.8119,-0.8144,-0.8141,-0.8103,-0.8103,-0.8103,-0.8103,-0.8103,-0.8103,-0.7716,-0.7732,-0.7754,-0.7783,-0.7808,-0.7832,-0.7848,-0.7871,-0.7895,-0.7927,-0.7949,-0.7973,-0.8006,-0.8039,-0.8065,-0.8076,-0.8086,-0.8076,-0.809,-0.8113,-0.8117,-0.8122,-0.812,-0.8078,-0.8077,-0.8065,-0.8064,-0.8064]}]]